TimeHST,TemperatureF,Dew PointF,Humidity,Sea Level PressureIn,VisibilityMPH,Wind Direction,Wind SpeedMPH,Gust SpeedMPH,PrecipitationIn,Events,Conditions,WindDirDegrees,DateUTC
12:54 AM,73.0,61.0,66,30.13,10.0,NE,23.0,33.4,N/A,,Clear,40,2012-01-22 10:54:00
1:54 AM,73.9,57.9,57,30.13,10.0,NE,11.5,23.0,N/A,,Clear,40,2012-01-22 11:54:00
2:54 AM,73.9,60.1,62,30.11,10.0,NE,19.6,-,N/A,,Partly Cloudy,40,2012-01-22 12:54:00
3:54 AM,72.0,59.0,64,30.07,10.0,NE,20.7,31.1,N/A,,Clear,50,2012-01-22 13:54:00
4:54 AM,70.0,55.9,61,30.01,10.0,ESE,4.6,-,N/A,,Clear,110,2012-01-22 14:54:00
5:54 AM,66.0,55.9,70,30.05,10.0,Variable,5.8,-,N/A,,Clear,0,2012-01-22 15:54:00
6:54 AM,66.9,55.9,68,30.07,10.0,East,4.6,-,N/A,,Partly Cloudy,90,2012-01-22 16:54:00
7:54 AM,73.9,59.0,59,30.08,10.0,ENE,10.4,-,N/A,,Partly Cloudy,70,2012-01-22 17:54:00
8:54 AM,75.9,61.0,60,30.07,10.0,East,15.0,35.7,N/A,,Partly Cloudy,80,2012-01-22 18:54:00
9:54 AM,79.0,59.0,50,30.06,10.0,ESE,17.3,39.1,N/A,,Partly Cloudy,120,2012-01-22 19:54:00
10:06 AM,78.8,57.2,47,30.05,10.0,ESE,8.1,-,N/A,,Clear,120,2012-01-22 20:06:00
10:54 AM,82.0,57.0,42,30.05,10.0,East,10.4,21.9,N/A,,Partly Cloudy,90,2012-01-22 20:54:00
11:54 AM,82.9,60.1,46,30.02,10.0,East,20.7,33.4,N/A,,Partly Cloudy,90,2012-01-22 21:54:00
12:54 PM,84.0,60.1,44,29.99,10.0,SSE,10.4,19.6,N/A,,Partly Cloudy,160,2012-01-22 22:54:00
1:25 PM,82.4,59.0,45,29.96,10.0,ENE,18.4,28.8,N/A,,Partly Cloudy,60,2012-01-22 23:25:00
1:54 PM,84.0,59.0,43,29.97,10.0,ENE,20.7,29.9,N/A,,Partly Cloudy,70,2012-01-22 23:54:00
2:54 PM,82.0,60.1,47,29.96,10.0,ENE,15.0,26.5,N/A,,Partly Cloudy,70,2012-01-23 00:54:00
3:54 PM,82.9,59.0,44,29.96,10.0,East,12.7,20.7,N/A,,Partly Cloudy,80,2012-01-23 01:54:00
4:54 PM,80.1,57.9,47,29.97,10.0,East,12.7,21.9,N/A,,Partly Cloudy,80,2012-01-23 02:54:00
5:54 PM,75.9,59.0,56,29.99,10.0,East,11.5,-,N/A,,Partly Cloudy,80,2012-01-23 03:54:00
6:54 PM,73.9,60.1,62,30.01,10.0,East,5.8,-,N/A,,Partly Cloudy,90,2012-01-23 04:54:00
7:54 PM,73.9,60.1,62,30.05,10.0,East,4.6,-,N/A,,Scattered Clouds,100,2012-01-23 05:54:00
8:54 PM,73.0,62.1,68,30.06,10.0,Calm,Calm,-,N/A,,Overcast,0,2012-01-23 06:54:00
9:54 PM,72.0,62.1,71,30.08,10.0,Calm,Calm,-,N/A,,Overcast,0,2012-01-23 07:54:00
10:54 PM,73.0,63.0,71,30.09,10.0,Calm,Calm,-,N/A,,Overcast,0,2012-01-23 08:54:00
11:54 PM,71.1,62.1,73,30.09,10.0,ESE,5.8,-,N/A,,Overcast,110,2012-01-23 09:54:00